Find Starlink 6047

NORAD ID: 56460 Int'l Des: 2023-064 Owner: SPXS Country: US Constellation: starlink operational
LEOCIRCULAR

Live Position

Loading 3D Globe...

About Starlink 6047

Description loading...

Upcoming Passes

Passes for default location (London). Set your location on the main map for personalized predictions.

Altitude History

Loading altitude history...

Two-Line Element Set

1 56460U 23064N 26126.07780845 .00001326 00000-0 11885-3 0 9990
2 56460 70.0000 359.7042 0002935 271.5562 88.5261 14.98337051163840
Epoch: May 6, 2026 • Age: 8 hours

Current Status

Altitude 593.2 km
Velocity 7.56 km/s
Sub-Earth Point -61.45°S, 144.39°W
Launch Date May 10, 2023
Age 2.9 years
Type internet

Technical Details

Classification Payload
Mass 305.00 kg
Dry Mass 290.00 kg
Total Mass 305.00 kg
Length 0.20 m
Diameter 2.80 m
Span 9.00 m
Shape Box + pan
Manufacturer SPXS
Bus Type Starlink
Phase Status In Orbit
Owner/State SPXS/US

Most Searched